Wind_Speed
38 37 36 36 37 38 35 32 30 28 27 27 27 26 25 25 25 26 24 22 21 20 19 18 17 16 15 14 13 12 10 9 8 6 6 5 4 3 3 3 3 4 4 5 6 7 7 8 8
39 39 38 38 39 39 36 33 32 30 29 29 28 27 27 27 27 26 25 24 23 22 21 20 19 18 17 15 14 13 12 10 9 8 7 6 5 5 5 4 4 5 5 6 7 7 8 9 9
41 41 41 41 41 39 35 34 34 32 31 30 30 29 29 29 28 27 26 25 25 24 23 22 21 20 19 17 16 15 13 12 11 9 8 8 7 7 6 6 6 6 6 7 7 8 9 9 10
42 43 43 44 42 39 37 36 34 32 32 31 31 31 31 30 29 28 27 27 26 25 25 24 23 22 20 19 17 16 15 13 12 11 10 9 9 8 8 8 7 7 8 8 8 9 10 10 11
44 44 45 45 43 39 38 37 36 34 33 32 32 32 32 31 30 30 29 28 27 26 26 26 25 23 22 21 19 18 16 15 13 12 11 11 10 10 9 9 9 9 8 9 9 10 10 11 12
46 46 47 46 43 41 40 38 38 37 34 33 33 34 32 32 31 31 30 29 28 27 27 27 26 25 24 22 21 20 18 16 15 14 13 12 11 11 11 11 10 10 10 10 10 11 12 13 14
47 48 48 46 44 42 41 41 41 39 36 33 33 35 34 33 32 32 31 31 30 29 29 28 28 27 26 24 22 21 20 18 17 16 15 14 13 12 12 12 12 12 12 12 12 13 13 14 14
46 48 48 47 45 43 41 42 42 41 38 36 35 36 35 34 34 33 33 32 31 31 30 30 29 28 27 26 24 23 22 20 19 17 16 16 15 14 14 14 14 14 14 14 14 15 15 15 16
45 47 46 45 44 42 42 43 43 42 41 39 38 38 36 36 35 34 33 33 33 32 31 31 31 30 29 28 26 25 24 22 20 19 18 18 17 16 16 16 16 16 16 16 16 16 17 17 17
45 46 44 42 43 43 42 43 43 43 41 40 40 39 37 37 37 36 35 34 34 33 32 32 32 31 31 29 28 27 26 24 23 21 20 19 19 18 18 17 17 17 17 18 18 18 19 19 19
43 45 43 43 42 43 42 42 43 42 40 38 39 39 37 37 37 37 37 36 35 35 34 34 34 33 32 31 30 29 28 26 25 24 22 21 21 20 20 20 19 19 19 20 20 21 21 21 21
43 44 43 43 42 43 44 44 42 41 41 40 40 40 39 37 37 38 38 37 36 36 36 36 36 35 34 33 32 31 30 29 28 27 25 23 23 23 22 22 22 21 21 21 22 22 23 23 23
42 43 44 43 43 43 43 43 43 40 41 41 40 39 39 39 38 38 39 39 37 37 37 37 37 37 36 35 34 32 31 30 30 29 27 26 25 25 24 24 24 23 23 23 23 24 24 24 25
40 42 44 45 45 45 44 44 43 41 40 41 41 40 39 38 39 39 40 40 40 39 38 39 39 38 37 36 36 35 34 33 32 31 30 28 28 27 26 26 25 24 24 25 25 25 26 27 28
38 42 44 45 46 45 45 45 43 42 41 41 41 42 40 39 39 40 40 40 41 40 40 40 39 39 38 37 37 37 35 34 33 32 32 31 30 29 28 27 27 26 26 26 27 27 28 29 29
36 40 43 44 46 46 46 45 43 42 41 41 41 41 41 40 40 40 40 40 41 41 42 42 41 40 40 39 38 38 37 36 34 34 33 33 32 31 30 29 28 27 28 28 28 29 29 30 30
36 39 41 42 44 45 46 45 44 43 42 41 41 40 41 41 41 40 41 41 40 41 43 43 42 41 41 41 40 39 39 37 36 35 34 34 33 33 32 32 31 30 30 30 30 30 31 31 32
33 36 38 40 41 43 45 44 44 43 43 43 42 41 41 42 42 41 41 42 42 42 43 44 44 43 42 42 41 41 40 38 37 37 36 35 35 35 35 34 34 33 33 33 33 32 32 32 33
28 33 36 38 39 41 43 43 44 43 44 43 43 43 42 42 42 42 42 43 44 44 43 44 44 44 43 43 42 42 41 40 39 38 38 37 37 36 36 36 36 36 36 36 34 33 33 33 33
25 28 31 34 36 39 40 42 43 43 43 44 43 43 44 43 43 43 43 43 45 45 45 45 45 45 43 43 43 43 42 41 41 40 39 39 38 38 37 37 37 37 37 37 36 34 34 34 34
22 24 26 28 33 37 38 40 42 43 42 43 43 43 43 44 43 43 43 42 43 45 45 46 46 46 44 43 44 43 43 42 42 41 41 40 40 39 38 39 38 37 37 37 37 36 36 35 35
20 21 23 26 29 32 35 37 39 41 41 43 43 43 43 44 45 44 44 44 44 44 44 46 46 46 46 45 44 44 44 43 42 42 41 41 41 40 40 40 39 38 38 38 37 37 37 36 36
19 19 20 22 26 28 31 35 37 39 40 41 42 42 42 43 44 44 44 45 45 46 46 46 47 47 47 46 45 44 44 44 43 43 43 42 42 41 41 40 40 39 38 38 37 38 37 37 37
16 19 19 20 22 25 28 31 35 36 37 38 40 41 42 43 43 43 45 46 47 47 47 47 47 47 46 46 46 46 45 45 44 44 44 43 42 42 42 42 41 40 39 38 37 37 38 38 38
17 18 18 17 20 23 25 29 31 32 34 36 38 40 41 43 43 42 43 45 46 48 46 46 47 47 46 46 46 47 46 46 46 45 44 43 43 43 41 41 40 40 40 39 38 38 39 39 39
15 18 18 17 18 19 22 26 27 28 31 34 35 36 38 41 42 42 43 44 45 47 47 47 46 47 48 47 47 46 45 45 45 44 43 42 42 42 42 40 40 40 40 40 40 39 39 40 40
15 17 18 19 20 21 22 25 25 26 29 32 34 35 37 39 40 42 42 43 44 45 47 47 47 47 48 47 47 47 46 45 43 42 42 41 41 41 41 40 40 40 40 40 41 40 40 40 41
16 17 18 19 20 21 23 24 25 25 27 30 32 34 35 37 38 39 41 43 44 44 46 48 48 47 47 48 48 48 47 46 44 43 42 41 41 41 41 40 40 40 41 41 41 41 40 40 41
17 19 21 22 22 23 23 24 26 28 29 30 32 33 34 36 37 38 39 42 43 44 45 46 46 46 46 47 47 47 46 46 45 44 43 43 42 42 40 41 40 40 40 40 40 40 40 41 41
17 19 22 23 24 25 25 24 25 27 29 31 32 33 35 36 36 37 38 40 42 43 44 45 45 46 46 45 45 46 45 46 45 45 44 43 42 41 41 40 40 40 40 40 40 40 40 41 41
Wind_Direction
241 239 239 238 238 238 239 239 239 238 238 238 238 237 236 235 234 234 232 230 229 227 227 227 228 227 226 227 229 228 224 227 229 231 238 246 257 271 283 294 307 312 317 321 325 330 333 333 331
241 239 239 238 238 239 239 239 238 238 239 238 239 238 236 235 235 235 233 231 230 229 229 229 229 229 229 230 232 231 228 229 232 235 242 250 258 270 278 287 296 304 310 314 318 323 326 327 327
240 238 237 237 239 240 240 239 238 238 238 238 238 237 236 235 235 235 234 232 231 231 230 230 229 230 231 233 234 232 229 232 235 239 245 253 260 268 274 281 291 298 305 310 314 319 321 321 322
239 237 237 237 238 239 239 237 237 237 238 237 238 238 236 236 235 234 233 232 232 232 231 230 230 230 232 233 234 230 231 234 239 241 246 252 259 267 274 279 285 292 299 306 312 316 319 317 317
239 237 237 237 237 237 237 237 237 237 238 237 238 239 236 234 234 234 233 232 232 232 231 231 231 231 231 232 232 232 232 235 239 243 249 253 259 266 272 278 283 286 291 300 307 312 314 314 315
239 238 238 238 237 236 236 236 237 236 237 237 238 237 236 235 233 234 233 232 233 232 232 231 230 231 231 232 233 234 234 236 239 243 249 255 259 265 270 274 280 284 289 296 303 306 310 311 311
238 238 239 239 237 236 236 236 237 236 236 237 238 238 235 234 233 233 233 232 233 233 232 231 230 231 232 232 233 235 235 237 240 244 248 253 257 263 269 273 278 282 288 294 298 302 305 307 308
236 237 238 238 237 236 236 236 237 236 237 237 236 237 235 233 233 233 233 232 233 233 233 231 230 231 231 232 233 235 235 237 241 245 248 252 257 261 268 272 276 280 286 292 296 300 301 302 304
234 236 236 237 237 236 235 236 237 236 237 236 236 237 236 233 232 232 232 232 233 233 234 232 230 231 231 232 233 234 236 239 242 246 249 252 256 260 264 269 274 279 284 290 294 298 299 301 302
233 234 236 236 236 236 235 238 237 236 235 234 235 236 236 233 232 232 231 232 232 232 233 233 231 231 232 232 233 234 236 239 242 245 248 251 256 260 263 268 272 276 281 287 292 294 296 299 300
233 234 234 235 235 235 236 237 237 237 235 234 234 234 233 233 233 232 231 231 232 232 233 232 230 231 232 232 233 235 237 239 242 245 248 251 255 259 263 266 271 275 279 284 288 291 293 296 298
234 233 233 235 234 234 236 236 236 237 235 234 232 232 232 233 233 232 231 230 231 232 232 231 231 232 232 233 233 235 238 239 242 245 248 252 255 259 262 266 270 275 279 283 287 289 291 294 295
234 234 232 233 233 233 234 235 236 236 234 233 232 232 233 233 234 233 232 231 231 232 232 231 231 232 233 234 234 235 238 241 244 245 248 251 254 257 261 265 269 273 277 281 285 289 290 292 294
234 234 234 234 234 234 234 234 236 236 235 233 233 233 233 233 234 234 233 232 232 232 231 230 231 232 234 234 235 236 238 241 244 246 248 250 253 256 259 263 267 271 275 279 284 288 291 294 295
233 233 234 235 234 234 235 234 235 236 236 235 233 233 233 234 235 234 234 234 233 232 230 230 230 232 234 235 236 236 238 240 243 246 248 251 254 256 258 261 266 270 274 278 282 286 289 291 293
233 233 234 234 236 235 236 236 236 235 235 235 233 233 233 234 235 235 234 234 233 231 231 231 232 233 234 236 237 238 239 242 242 245 248 251 255 256 258 261 266 270 274 277 280 283 286 289 292
233 234 235 234 235 236 236 237 235 235 235 234 232 233 232 233 233 234 234 233 233 232 232 232 233 234 236 237 238 239 240 242 243 245 248 250 254 256 258 262 266 270 274 277 280 282 285 288 289
234 234 234 234 234 235 236 237 236 236 236 235 233 233 231 232 233 235 234 233 232 232 232 233 234 234 237 238 238 240 241 242 244 247 248 251 253 256 258 262 266 270 272 276 280 282 284 287 289
237 235 234 234 234 236 237 237 237 237 236 235 233 232 232 232 234 235 234 234 233 233 233 233 234 236 238 239 239 240 242 243 245 248 250 251 253 255 259 264 267 270 272 276 279 282 283 285 287
238 236 236 236 234 235 235 237 237 236 237 236 234 233 232 233 234 235 235 235 235 235 235 235 236 237 239 239 240 240 241 242 244 248 250 253 255 257 260 262 266 270 273 276 278 280 283 284 286
239 239 237 238 237 236 237 238 238 237 237 237 237 236 234 234 234 234 235 234 235 236 237 237 237 238 240 239 239 240 241 243 245 247 250 252 256 257 260 263 266 270 273 276 278 279 282 284 285
239 235 236 240 239 237 237 240 239 239 238 238 238 238 236 236 235 235 235 236 236 237 237 237 238 239 240 240 240 241 243 243 245 247 249 252 254 257 260 263 265 270 273 276 277 278 281 283 284
242 236 237 241 242 240 238 240 239 240 240 239 239 239 238 237 237 236 235 236 237 239 238 237 238 238 240 240 241 242 243 244 246 248 251 253 255 258 261 263 266 270 272 275 276 277 280 281 283
244 239 238 244 246 244 239 241 243 242 242 241 240 239 238 238 237 237 237 238 238 239 240 239 238 238 239 241 243 242 244 244 247 249 251 253 255 258 260 263 266 268 271 274 276 278 280 281 282
246 241 241 248 246 247 244 244 246 246 245 243 242 241 239 239 239 238 238 239 238 238 238 239 239 239 239 241 242 244 245 246 248 248 251 253 255 258 261 262 263 266 269 272 275 277 281 281 282
245 239 244 252 251 249 246 247 247 246 246 244 242 242 241 241 241 241 239 240 239 239 238 240 240 239 240 241 243 244 245 246 248 248 250 253 255 258 259 260 263 266 269 271 274 277 279 281 283
244 243 249 257 259 257 254 252 250 248 247 246 244 243 241 241 242 242 242 241 241 241 239 239 240 241 241 242 242 243 245 246 247 248 250 252 255 258 259 261 263 266 268 270 273 276 278 281 283
251 249 254 256 260 261 260 259 255 253 251 247 246 244 243 243 243 244 243 242 241 241 240 239 240 241 242 243 242 244 246 247 247 248 250 252 255 257 260 262 264 265 267 269 273 276 278 280 283
257 253 254 257 260 262 266 263 259 257 255 251 247 245 245 244 244 244 244 243 241 241 242 242 241 242 242 242 242 244 246 247 248 249 251 253 254 256 259 262 263 264 267 269 272 276 279 281 283
263 257 258 261 260 263 267 265 262 259 256 253 249 247 246 246 245 245 245 245 243 242 242 243 243 243 242 242 242 244 246 249 250 251 252 253 255 257 259 261 264 266 268 269 272 275 278 281 283
Height
5798 5801 5803 5806 5808 5810 5814 5820 5824 5827 5830 5832 5834 5836 5838 5840 5843 5846 5847 5848 5851 5853 5855 5857 5859 5860 5861 5863 5864 5864 5866 5866 5867 5867 5868 5868 5868 5869 5869 5869 5869 5869 5868 5868 5868 5867 5866 5866 5865
5790 5793 5795 5798 5800 5803 5809 5815 5818 5822 5825 5827 5829 5832 5834 5835 5837 5840 5842 5845 5847 5849 5852 5854 5856 5857 5859 5860 5862 5863 5864 5865 5866 5866 5867 5867 5867 5868 5868 5868 5868 5868 5867 5867 5866 5866 5865 5865 5864
5781 5784 5787 5789 5792 5797 5805 5809 5812 5816 5819 5821 5824 5826 5829 5831 5833 5836 5838 5841 5843 5846 5848 5850 5852 5854 5856 5858 5859 5861 5862 5863 5864 5865 5865 5866 5866 5866 5866 5867 5866 5866 5866 5866 5865 5865 5864 5863 5862
5772 5775 5778 5781 5785 5792 5798 5803 5806 5809 5812 5815 5818 5821 5823 5826 5829 5831 5833 5836 5839 5841 5844 5846 5849 5851 5853 5855 5857 5858 5859 5861 5862 5862 5863 5864 5864 5865 5865 5865 5865 5865 5865 5864 5864 5863 5863 5862 5861
5762 5765 5768 5772 5779 5786 5791 5796 5799 5802 5806 5809 5812 5814 5817 5820 5823 5826 5829 5831 5834 5837 5840 5842 5845 5847 5849 5852 5854 5855 5857 5858 5859 5860 5861 5862 5862 5863 5863 5863 5863 5863 5863 5863 5862 5862 5861 5860 5859
5753 5756 5760 5765 5773 5779 5784 5789 5791 5795 5799 5802 5805 5808 5811 5815 5818 5821 5824 5827 5830 5832 5835 5838 5840 5843 5846 5848 5850 5852 5854 5855 5856 5858 5859 5859 5860 5861 5861 5861 5861 5861 5861 5861 5860 5860 5859 5858 5857
5744 5748 5752 5758 5765 5771 5777 5781 5784 5789 5793 5796 5799 5802 5805 5809 5813 5816 5819 5822 5825 5828 5830 5833 5836 5839 5841 5844 5846 5848 5850 5852 5853 5855 5856 5857 5858 5858 5859 5859 5859 5859 5859 5859 5858 5857 5857 5856 5855
5733 5739 5744 5750 5757 5764 5770 5773 5776 5781 5786 5790 5792 5795 5799 5803 5807 5810 5813 5817 5820 5822 5825 5828 5831 5834 5837 5840 5842 5845 5847 5849 5850 5851 5853 5854 5855 5856 5856 5857 5857 5857 5856 5856 5856 5855 5854 5853 5852
5723 5729 5735 5743 5750 5757 5761 5764 5769 5773 5778 5781 5784 5788 5793 5797 5800 5804 5807 5811 5814 5817 5820 5823 5826 5829 5832 5835 5838 5840 5843 5845 5846 5848 5849 5850 5852 5852 5853 5854 5854 5854 5854 5853 5853 5852 5851 5850 5849
5713 5719 5730 5738 5743 5747 5751 5755 5760 5765 5770 5774 5778 5782 5786 5790 5794 5798 5802 5805 5809 5812 5815 5818 5821 5824 5827 5830 5833 5836 5838 5841 5842 5844 5845 5847 5848 5849 5849 5850 5849 5850 5850 5850 5850 5849 5848 5847 5846
5704 5713 5722 5727 5733 5737 5741 5746 5751 5757 5762 5767 5772 5776 5779 5783 5787 5791 5795 5798 5802 5805 5809 5812 5815 5819 5822 5825 5828 5831 5834 5836 5838 5839 5841 5842 5844 5845 5845 5846 5846 5846 5847 5846 5846 5845 5844 5843 5842
5697 5705 5712 5718 5723 5728 5732 5738 5743 5749 5755 5759 5764 5768 5772 5776 5780 5784 5788 5792 5795 5799 5802 5805 5809 5813 5816 5820 5823 5826 5828 5831 5833 5834 5836 5838 5839 5840 5841 5842 5842 5842 5843 5842 5842 5841 5840 5839 5838
5688 5696 5702 5707 5713 5719 5724 5729 5735 5741 5747 5751 5756 5760 5765 5769 5773 5777 5781 5785 5788 5792 5795 5799 5803 5806 5810 5814 5817 5820 5823 5825 5827 5829 5831 5833 5834 5836 5836 5837 5838 5838 5838 5838 5837 5837 5836 5834 5833
5680 5686 5692 5698 5705 5710 5715 5721 5727 5734 5738 5743 5748 5753 5758 5762 5765 5770 5774 5778 5782 5785 5789 5792 5796 5800 5804 5807 5811 5814 5816 5819 5821 5824 5825 5827 5829 5830 5831 5832 5833 5833 5833 5833 5833 5832 5831 5830 5828
5671 5677 5683 5689 5696 5702 5707 5713 5719 5726 5730 5735 5740 5745 5750 5754 5758 5763 5767 5771 5775 5778 5782 5786 5789 5793 5797 5800 5804 5807 5810 5812 5815 5818 5820 5821 5823 5824 5825 5826 5827 5828 5828 5828 5827 5827 5826 5824 5823
5662 5668 5673 5681 5687 5694 5700 5705 5713 5717 5722 5727 5732 5737 5742 5747 5751 5755 5759 5764 5768 5771 5775 5779 5783 5786 5790 5794 5797 5800 5803 5806 5809 5811 5813 5815 5817 5818 5819 5820 5821 5821 5822 5822 5822 5821 5820 5819 5817
5654 5659 5666 5674 5679 5685 5690 5697 5704 5709 5713 5719 5724 5729 5734 5739 5743 5748 5752 5757 5761 5764 5768 5772 5776 5780 5783 5787 5790 5793 5796 5799 5802 5804 5806 5808 5810 5812 5813 5814 5815 5815 5815 5815 5815 5815 5814 5813 5812
5647 5652 5658 5665 5672 5676 5681 5688 5695 5700 5705 5710 5716 5721 5726 5731 5736 5741 5745 5749 5753 5757 5761 5765 5769 5773 5776 5779 5782 5786 5789 5792 5795 5797 5800 5801 5803 5805 5806 5807 5808 5808 5809 5808 5808 5808 5807 5806 5805
5641 5646 5651 5658 5664 5669 5673 5679 5685 5690 5695 5701 5707 5712 5718 5723 5728 5733 5737 5741 5745 5749 5753 5758 5762 5766 5769 5772 5775 5778 5781 5785 5788 5790 5792 5794 5796 5798 5799 5800 5801 5801 5802 5802 5801 5801 5800 5799 5798
5636 5639 5644 5650 5656 5660 5665 5670 5676 5681 5687 5693 5699 5704 5710 5715 5720 5725 5729 5733 5737 5741 5745 5750 5754 5758 5761 5764 5767 5770 5774 5777 5780 5782 5784 5786 5788 5790 5792 5792 5793 5794 5794 5794 5794 5794 5793 5792 5791
5631 5635 5640 5644 5648 5652 5657 5662 5667 5673 5679 5684 5690 5696 5701 5707 5712 5717 5721 5726 5730 5733 5737 5742 5746 5749 5752 5756 5759 5762 5765 5768 5771 5774 5777 5779 5781 5783 5784 5785 5785 5786 5786 5786 5786 5786 5785 5784 5783
5628 5632 5636 5639 5642 5646 5651 5654 5660 5665 5670 5676 5682 5687 5693 5698 5703 5708 5713 5717 5721 5725 5729 5733 5737 5741 5744 5747 5751 5754 5757 5761 5763 5766 5768 5771 5772 5774 5776 5777 5777 5778 5778 5778 5778 5778 5777 5776 5775
5625 5629 5632 5635 5638 5641 5644 5647 5653 5657 5662 5668 5674 5679 5684 5690 5695 5700 5705 5709 5712 5716 5720 5724 5728 5732 5735 5739 5742 5746 5749 5752 5755 5757 5760 5762 5764 5766 5768 5769 5769 5770 5770 5770 5770 5770 5769 5768 5767
5622 5626 5629 5631 5632 5635 5638 5641 5645 5650 5656 5661 5666 5671 5676 5681 5686 5691 5695 5699 5703 5707 5711 5714 5718 5722 5726 5730 5733 5737 5740 5743 5746 5749 5751 5753 5756 5757 5759 5760 5761 5762 5762 5762 5762 5761 5761 5760 5759
5619 5622 5624 5626 5627 5629 5633 5635 5640 5645 5649 5654 5658 5662 5667 5672 5677 5681 5685 5689 5693 5697 5701 5705 5709 5713 5717 5720 5724 5727 5731 5734 5737 5739 5741 5744 5747 5749 5750 5751 5752 5753 5753 5753 5753 5753 5753 5752 5751
5616 5619 5621 5622 5623 5626 5628 5630 5635 5638 5642 5646 5650 5654 5658 5663 5667 5672 5676 5680 5683 5687 5692 5695 5699 5703 5707 5711 5714 5718 5721 5724 5727 5730 5732 5735 5738 5740 5741 5742 5743 5744 5745 5745 5745 5745 5744 5743 5742
5613 5615 5617 5619 5620 5622 5623 5626 5630 5632 5635 5638 5642 5646 5650 5654 5658 5663 5666 5670 5674 5678 5682 5686 5689 5693 5697 5701 5705 5709 5712 5715 5718 5721 5723 5726 5728 5730 5732 5733 5734 5735 5736 5736 5736 5736 5735 5734 5733
5612 5613 5614 5615 5616 5616 5619 5621 5624 5626 5628 5631 5635 5638 5641 5645 5649 5653 5656 5660 5664 5668 5672 5676 5680 5683 5687 5690 5694 5698 5701 5705 5708 5711 5714 5716 5719 5721 5722 5724 5725 5726 5726 5726 5726 5726 5726 5725 5724
5609 5610 5610 5611 5612 5613 5613 5619 5619 5620 5622 5624 5627 5630 5633 5636 5640 5644 5647 5651 5655 5658 5662 5666 5669 5673 5677 5681 5684 5688 5691 5695 5698 5701 5704 5707 5709 5711 5712 5714 5715 5716 5716 5717 5717 5717 5716 5715 5714
5605 5606 5606 5608 5608 5608 5609 5615 5613 5614 5615 5617 5620 5623 5625 5628 5632 5635 5638 5642 5645 5649 5652 5656 5660 5664 5667 5671 5674 5678 5682 5685 5688 5691 5694 5696 5699 5701 5702 5704 5705 5706 5706 5707 5707 5707 5707 5706 5704